Miscellaneous Local Product
Issued by NWS North Platte, NE

Home | Current Version | Previous Version | Text Only | Print | Product List | Glossary On
Versions: 1 2 3 4 5 6 7 8 9 10 11 12 13 14 15 16 17 18 19 20 21 22 23 24 25 26 27 28 29 30 31 32 33 34 35 36 37 38 39 40 41 42 43 44 45 46 47 48 49 50
000
AXUS43 KLBF 022010
MISLBF


WESTERN AND NORTH CENTRAL NEBRASKA HOURLY WEATHER ROUNDUP
NATIONAL WEATHER SERVICE NORTH PLATTE NE
200 PM CST MON MAR 02 2015

***STATIONS NOT REPORTING VARIABLES SUCH AS SKY/WEATHER OR
PRESSURE ARE PROVIDED BY THE NEBRASKA DEPARTMENT OF
ROADS...RAWS...AND APRS NETWORKS...AND ARE NOT UNDER
NATIONAL WEATHER SERVICE QUALITY CONTROL***

...OBSERVATIONS IN AND NEAR THE EASTERN PANHANDLE OF NEBRASKA...

CITY           SKY/WX    TMP DP  RH WIND       PRES   REMARKS
PINE RIDGE     PTSUNNY   42  20  41 S22G30    29.82
CHADRON        CLOUDY    42  23  46 S22       29.80
ALLIANCE       CLOUDY    38  20  48 S20       29.84  WCI  28
SIDNEY         CLOUDY    35  23  61 S22G29    29.84F WCI  23
WHITECLAY        N/A     39  20  45 S16         N/A  WCI  30
CRESCENT LAKE    N/A     35  21  56 S15G23      N/A  WCI  25
LISCO            N/A     37  19  48 SE16        N/A  WCI  28
BIG SPRINGS      N/A     33  24  70 S17         N/A  WCI  22
LEWELLEN         N/A     32  20  59 S18         N/A  WCI  21
$$

...OBSERVATIONS IN NORTH CENTRAL NEBRASKA...

CITY           SKY/WX    TMP DP  RH WIND       PRES   REMARKS
VALENTINE      MOSUNNY   39  12  33 S26G38    29.94F WCI  28
THEDFORD       MOSUNNY   40  15  35 S26G36    29.96F WCI  29
AINSWORTH      PTSUNNY   39  13  34 S30G39    29.97F WCI  27
O`NEILL        CLOUDY    40  18  40 S24G36    30.07F WCI  30
ORD            CLOUDY    39  15  37 S25G38    30.08F WCI  28
BROKEN BOW     CLOUDY    39  15  37 S25G45    30.03  WCI  28
BROWNLEE         N/A     40   9  28 S35         N/A  WCI  27
SPRINGVIEW       N/A     39  16  40 S17G31      N/A  WCI  30
BREWSTER         N/A     38  14  36 S25         N/A  WCI  27
ROSE             N/A     41  20  44 SE24        N/A
NEWPORT          N/A     39  15  37 S26         N/A  WCI  28
SARGENT          N/A     38  17  42 SE8G23      N/A  WCI  32
COMSTOCK         N/A     41  14  33 S28         N/A
CHAMBERS         N/A     41  18  39 S23G30      N/A
EWING            N/A     40  22  47 S16G30      N/A  WCI  31
$$

...OBSERVATIONS IN SOUTHWEST NEBRASKA AND FAR NORTHEAST COLORADO...

CITY           SKY/WX    TMP DP  RH WIND       PRES   REMARKS
WRAY           CLOUDY    32  25  74 S18G26    29.92F WCI  20
IMPERIAL         N/A     31  19  61 S22G28    29.96F WCI  18
OGALLALA       CLOUDY    33  22  63 S23G30    29.94F WCI  21
NORTH PLATTE   MOSUNNY   40  18  41 S21G31    29.97  WCI  30
MCCOOK         CLOUDY    37  20  50 S23G29    30.03F WCI  26
LEXINGTON      CLOUDY    39  16  38 S28G36    30.04F WCI  28
PAXTON           N/A     37  24  59 S18         N/A  WCI  27
BRADY            N/A     38  19  46 NE3G15      N/A
GOTHENBURG       N/A     35  17  47 S18         N/A  WCI  24
CALLAWAY         N/A     37  18  46 S29         N/A  WCI  24
$$

...NORTH PLATTE AREA...

CITY           SKY/WX    TMP DP  RH WIND       PRES   REMARKS
AIRPORT        MOSUNNY   40  18  41 S21G31    29.97  WCI  30
DOWNTOWN         N/A     37  20  50 S16G28      N/A  WCI  27
$$

...SOME WEATHER OBSERVATIONS FROM AROUND THE REGION...

CITY           SKY/WX    TMP DP  RH WIND       PRES   REMARKS
DENVER         MOSUNNY   29  21  72 N6        29.77  HAZE    WCI  23
LARAMIE        PTSUNNY   39  31  72 SW16      29.70F WCI  30
CHEYENNE       MOSUNNY   34  23  64 VRB6      29.75F WCI  29
SCOTTSBLUFF    PTSUNNY   43  24  47 S15G22    29.81
RAPID CITY     PTSUNNY   47  23  38 S20       29.75
PIERRE         SUNNY     45  17  32 S30G41    29.91F
WINNER         FAIR      44  14  29 S26G36    29.96F
SIOUX FALLS    CLOUDY    27  16  63 S15       30.20F WCI  15
OMAHA          CLOUDY    39  20  46 S17       30.28  WCI  30
GRAND ISLAND   CLOUDY    39  15  37 S25G37    30.15F WCI  28
KANSAS CITY    CLOUDY    39  19  44 E13       30.33F WCI  31
WICHITA        CLOUDY    35  19  52 SE10      30.24F WCI  27
HAYS           CLOUDY    34  16  47 S22       30.17F WCI  22
LIBERAL        CLOUDY    32  27  80 S17       30.11F WCI  21
GOODLAND       CLOUDY    29  23  78 S26G36    29.96F WCI  14
$$



USA.gov is the U.S. government's official web portal to all federal, state and local government web resources and services.